[[{"header":{"parameterUnit":"m.s-1","parameterCategory":1,"la1":30.2991,"la2":30.254,"lo1":-89.0895,"lo2":-89.0444,"dy":0.0017,"dx":0.0017,"nx":28,"ny":28,"refTime":"2025-04-21T03:00:00:Z","depth":0,"parameterNumber":2,"parameterNumberName":"U-component_of_WINDS"},"data":[0,0,0,0,0,0,0,0,0,0,0,0,0,0,0,0,0,0,0,0,0,0,0,0,0,0,0,0,0,0,0,0,0,0,0,0,0,0,0,0,0,0,0,0,0,0,0,0,0,0,0,0,0,0,0,0,0,0,-4.1332,-4.1332,0,-4.135,-4.135,-4.135,-4.1312,-4.1311,-4.1309,-4.1308,-4.1326,-4.1328,-4.133,0,0,0,0,0,0,0,0,0,0,0,0,0,-4.1268,-4.127,-4.1332,-4.1332,-4.1333,-4.135,-4.135,-4.135,-4.1312,-4.1311,-4.1309,-4.1308,-4.1326,-4.1328,-4.133,0,0,0,0,0,0,0,0,0,0,0,0,0,-4.1292,-4.127,-4.1332,-4.1316,-4.1314,-4.135,-4.135,-4.135,-4.1312,-4.1311,-4.1309,-4.1307,-4.1325,-4.1328,-4.133,-4.1382,0,0,-4.1338,-4.1339,0,0,0,0,0,0,0,0,-4.1291,-4.1294,-4.1318,-4.1317,-4.1315,-4.1327,-4.1334,-4.1361,-4.1313,-4.1313,-4.1308,-4.1306,-4.1328,-4.133,-4.1337,-4.1383,-4.1384,-4.1338,-4.1339,-4.134,-4.1341,0,0,0,0,0,0,0,-4.1289,-4.1293,-4.1339,-4.1318,-4.1317,-4.1308,-4.131,-4.1339,-4.1331,-4.1313,-4.131,-4.1313,-4.1327,-4.1335,-4.1338,-4.1384,-4.1338,-4.134,-4.1341,-4.1342,-4.1476,-4.1478,0,0,0,0,0,0,-4.1289,-4.1292,-4.1338,-4.134,-4.1298,-4.1311,-4.1312,-4.1325,-4.133,-4.1329,-4.1314,-4.1311,-4.1332,-4.1335,-4.1338,-4.14,-4.134,-4.1343,-4.1344,-4.1474,-4.1476,-4.1478,0,0,0,0,0,0,-4.1288,-4.1294,-4.1338,-4.1315,-4.132,-4.1314,-4.1328,-4.1326,-4.1334,-4.1331,-4.133,-4.1324,-4.1331,-4.1335,-4.1372,-4.14,-4.1344,-4.1346,-4.1471,-4.1474,-4.1477,-4.1524,0,0,0,0,0,0,-4.1286,-4.1294,-4.1312,-4.1316,-4.1322,-4.1371,-4.133,-4.1328,-4.1339,-4.1334,-4.134,-4.1339,-4.1329,-4.1369,-4.1374,-4.1403,-4.1348,-4.1469,-4.1473,-4.1476,-4.152,-4.1529,-4.1536,0,0,0,0,0,-4.1284,-4.1324,-4.1313,-4.1319,-4.1345,-4.1372,-4.1375,-4.1363,-4.1341,-4.136,-4.1359,-4.1339,-4.1397,-4.1373,-4.1379,-4.1408,-4.1467,-4.1472,-4.1476,-4.1516,-4.1527,-4.1536,0,0,0,0,0,0,-4.1323,-4.1324,-4.1312,-4.1355,-4.1364,-4.1366,-4.1389,-4.1374,-4.139,-4.1385,-4.137,-4.1372,-4.1412,-4.1414,-4.1387,-4.146,-4.1428,-4.1434,-4.1457,-4.1467,-4.1474,-4.1472,-4.135,0,0,0,0,0,-4.1337,-4.1359,-4.1359,-4.1396,-4.1402,-4.1395,-4.1407,-4.1397,-4.1406,-4.1409,-4.141,-4.142,-4.144,-4.1454,-4.1472,-4.1521,-4.1523,-4.1545,-4.1553,-4.1559,-4.1564,-4.1592,-4.1602,-4.1494,-4.1494,-4.1494,0,0,-4.1365,-4.1369,-4.1383,-4.1404,-4.141,-4.1434,-4.1398,-4.1424,-4.1442,-4.1413,-4.1448,-4.145,-4.146,-4.1504,-4.1523,-4.1507,-4.1595,-4.1565,-4.157,-4.1572,-4.1597,-4.1608,-4.1617,-4.1497,-4.1496,-4.1496,0,0,-4.1428,-4.1433,-4.1465,-4.1473,-4.1482,-4.1478,-4.1487,-4.1492,-4.1492,-4.1527,-4.1507,-4.1528,-4.1563,-4.1572,-4.1581,-4.1652,-4.1634,-4.1659,-4.1698,-4.1725,-4.1734,-4.1741,-4.1767,-4.1776,-4.1664,-4.1664,-4.1664,0,-4.1461,-4.1495,-4.1484,-4.1512,-4.1522,-4.1499,-4.1532,-4.154,-4.1556,-4.1564,-4.1546,-4.1591,-4.1596,-4.1642,-4.166,-4.1668,-4.1677,-4.1656,-4.1734,-4.1741,-4.1748,-4.1772,-4.1781,-4.1667,-4.1666,-4.1666,-4.1666,0,-4.1536,-4.1561,-4.1586,-4.1602,-4.1616,-4.1647,-4.1641,-4.1656,-4.1647,-4.1645,-4.1683,-4.1689,-4.1709,-4.172,-4.171,-4.1766,-4.1755,-4.1736,-4.1703,-4.1761,-4.1783,-4.1793,-4.1671,-4.167,-4.1669,-4.1668,0,0,-4.162,-4.1633,-4.1642,-4.165,-4.1661,-4.168,-4.1711,-4.1731,-4.1745,-4.1758,-4.1784,-4.1816,-4.1799,-4.181,-4.1802,-4.1826,-4.1882,-4.1803,-4.1804,-4.1817,-4.1944,-4.1957,-4.1968,-4.1872,-4.1874,-4.1875,-4.1943,0,-4.1683,-4.1735,-4.1727,-4.1777,-4.1801,-4.1781,-4.1808,-4.1819,-4.1819,-4.184,-4.1841,-4.1864,-4.184,-4.1846,-4.1869,-4.187,-4.1907,-4.1866,-4.1896,-4.1897,-4.1892,-4.198,-4.1993,-4.2057,-4.1952,-4.1953,-4.1954,0,-4.1761,-4.1777,-4.1831,-4.184,-4.185,-4.1874,-4.1893,-4.1913,-4.1926,-4.1925,-4.1938,-4.1927,-4.1959,-4.1928,-4.1973,-4.1945,-4.1957,-4.196,-4.1963,-4.1963,-4.1928,-4.1982,-4.2077,-4.2086,-4.1968,-4.1967,-4.1966,0,-4.1816,-4.1852,-4.1889,-4.1897,-4.1909,-4.1927,-4.1933,-4.1944,-4.1958,-4.1975,-4.1984,-4.2005,-4.2017,-4.2034,-4.2029,-4.2007,-4.2076,-4.2044,-4.2076,-4.2076,-4.2089,-4.2088,-4.2186,-4.21,-4.21,-4.2099,-4.2099,0,-4.1885,-4.1919,-4.1915,-4.1937,-4.1975,-4.1967,-4.2004,-4.2008,-4.2019,-4.2043,-4.2028,-4.2051,-4.2044,-4.2067,-4.2064,-4.2102,-4.2107,-4.2108,-4.2106,-4.2108,-4.2108,-4.2114,-4.2109,-4.2102,-4.2101,-4.2101,-4.2101,0,-4.1952,-4.1951,-4.199,-4.2,-4.2003,-4.203,-4.2039,-4.2061,-4.2062,-4.2092,-4.2099,-4.2101,-4.2127,-4.2125,-4.2155,-4.2153,-4.22,-4.2194,-4.2196,-4.2194,-4.2226,-4.2223,-4.2331,-4.2345,-4.225,-4.2251,-4.2252,0,-4.1995,-4.2021,-4.2034,-4.2049,-4.2057,-4.2081,-4.2095,-4.209,-4.2106,-4.2124,-4.2144,-4.217,-4.2189,-4.2234,-4.2238,-4.2261,-4.2255,-4.2291,-4.2258,-4.226,-4.2255,-4.2253,-4.2255,-4.2297,-4.2298,-4.2299,-4.23,0,-4.2072,-4.2071,-4.2092,-4.2114,-4.2132,-4.2149,-4.2164,-4.2178,-4.2174,-4.2193,-4.2221,-4.2236,-4.2268,-4.2294,-4.2317,-4.2324,-4.2312,-4.2311,-4.2319,-4.232,-4.232,-4.232,-4.2212,-4.2307,-4.2307,-4.2306,-4.2306,-4.2305,-4.2128,-4.2151,-4.2164,-4.2189,-4.22,-4.2216,-4.2237,-4.2242,-4.2265,-4.229,-4.2286,-4.2317,-4.2332,-4.2362,-4.2372,-4.2397,-4.2384,-4.2396,-4.2399,-4.2402,-4.2405,-4.2318,-4.2401,-4.2401,-4.2401,-4.24,-4.24,0,-4.2204,-4.2212,-4.2236,-4.2258,-4.2278,-4.2267,-4.2284,-4.2301,-4.2329,-4.2344,-4.2365,-4.2397,-4.2423,-4.2431,-4.2456,-4.2475,-4.247,-4.2482,-4.248,-4.2482,-4.2416,-4.2405,-4.2486,-4.2486,-4.2486,-4.2485,-4.2485,-4.2485,-4.2245,-4.2283,-4.2284,-4.2328,-4.2336,-4.2367,-4.2378,-4.2393,-4.2405,-4.2442,-4.2464,-4.2469,-4.2482,-4.2508,-4.2532,-4.2534,-4.2544,-4.2558,-4.2557,-4.2495,-4.2486,-4.2478,-4.2468,-4.256,-4.256,-4.2621,-4.2622,-4.2622]},{"header":{"parameterUnit":"m.s-1","parameterCategory":1,"la1":30.2991,"la2":30.254,"lo1":-89.0895,"lo2":-89.0444,"dy":0.0017,"dx":0.0017,"nx":28,"ny":28,"refTime":"2025-04-21T03:00:00:Z","depth":0,"parameterNumber":3,"parameterNumberName":"V-component_of_WINDS"},"data":[0,0,0,0,0,0,0,0,0,0,0,0,0,0,0,0,0,0,0,0,0,0,0,0,0,0,0,0,0,0,0,0,0,0,0,0,0,0,0,0,0,0,0,0,0,0,0,0,0,0,0,0,0,0,0,0,0,0,4.0749,4.0749,0,4.0688,4.0687,4.0686,4.0696,4.0697,4.0698,4.0699,4.0631,4.0628,4.0625,0,0,0,0,0,0,0,0,0,0,0,0,0,4.0872,4.087,4.0749,4.0749,4.0748,4.0688,4.0687,4.0686,4.0696,4.0697,4.0698,4.07,4.0632,4.0628,4.0625,0,0,0,0,0,0,0,0,0,0,0,0,0,4.0815,4.0869,4.075,4.0746,4.0745,4.0688,4.0687,4.0686,4.0696,4.0697,4.0699,4.07,4.0633,4.0629,4.0624,4.0566,0,0,4.0611,4.061,0,0,0,0,0,0,0,0,4.0819,4.0811,4.0747,4.0746,4.0745,4.0701,4.0705,4.0646,4.0695,4.0714,4.0699,4.0701,4.0653,4.0647,4.0631,4.0563,4.056,4.0611,4.0609,4.0607,4.0605,0,0,0,0,0,0,0,4.0822,4.0813,4.0725,4.0746,4.0745,4.0746,4.074,4.0694,4.0675,4.0712,4.0713,4.0706,4.0652,4.0636,4.063,4.0559,4.0611,4.0607,4.0605,4.0603,4.0442,4.0441,0,0,0,0,0,0,4.0828,4.0817,4.0727,4.0723,4.0787,4.0742,4.0735,4.0714,4.0675,4.0671,4.0705,4.0707,4.0642,4.0635,4.0628,4.0559,4.0607,4.0603,4.06,4.0444,4.0442,4.044,0,0,0,0,0,0,4.0831,4.082,4.0729,4.077,4.0759,4.0739,4.0714,4.0711,4.0695,4.067,4.0666,4.0691,4.0643,4.0634,4.0582,4.0557,4.0601,4.0597,4.0446,4.0443,4.0441,4.042,0,0,0,0,0,0,4.0834,4.0821,4.0799,4.077,4.0756,4.0686,4.0712,4.0709,4.0688,4.069,4.0656,4.0652,4.0644,4.0589,4.0578,4.0552,4.0594,4.0448,4.0445,4.0442,4.0423,4.0417,4.0412,0,0,0,0,0,4.0839,4.0794,4.0798,4.0787,4.0729,4.0684,4.0677,4.067,4.0686,4.0664,4.0648,4.0653,4.0561,4.0583,4.0572,4.0543,4.045,4.0446,4.0442,4.0425,4.0418,4.0412,0,0,0,0,0,0,4.0818,4.079,4.0794,4.0738,4.0714,4.0686,4.0658,4.0662,4.063,4.0633,4.0624,4.0616,4.0565,4.0549,4.0574,4.0486,4.0508,4.0501,4.0499,4.0492,4.0486,4.0491,4.059,0,0,0,0,0,4.0807,4.0775,4.0751,4.0705,4.0693,4.0677,4.0657,4.0655,4.0628,4.0617,4.0597,4.057,4.0536,4.0513,4.0479,4.0421,4.0414,4.0395,4.039,4.0386,4.038,4.035,4.0342,4.0427,4.0427,4.0427,0,0,4.0784,4.0765,4.0744,4.07,4.0681,4.0647,4.0668,4.0631,4.0605,4.0611,4.0562,4.0547,4.0516,4.0462,4.0437,4.0447,4.0355,4.0381,4.0377,4.0374,4.0345,4.0337,4.033,4.0425,4.0425,4.0426,0,0,4.0725,4.0707,4.0667,4.0649,4.062,4.0611,4.0602,4.0574,4.0565,4.0517,4.0521,4.049,4.043,4.0409,4.039,4.0326,4.033,4.0315,4.0287,4.0257,4.0251,4.0245,4.0224,4.0216,4.031,4.031,4.031,0,4.0699,4.065,4.0646,4.0609,4.059,4.0596,4.0556,4.0537,4.0499,4.0485,4.0497,4.0424,4.0404,4.0346,4.0331,4.0315,4.0304,4.0319,4.0252,4.0246,4.0241,4.022,4.0212,4.0308,4.0309,4.0309,4.0309,0,4.062,4.0586,4.0557,4.0523,4.0501,4.0462,4.0452,4.043,4.0429,4.0419,4.037,4.0347,4.031,4.0295,4.0293,4.0238,4.0245,4.0255,4.0276,4.0231,4.0212,4.0204,4.0306,4.0307,4.0307,4.0308,0,0,4.0544,4.0512,4.0501,4.0487,4.0458,4.0431,4.0393,4.0359,4.0341,4.0314,4.0283,4.0233,4.0244,4.0222,4.0218,4.0192,4.0146,4.0206,4.0205,4.0197,4.0085,4.0079,4.007,4.0149,4.0147,4.0146,4.0088,0,4.0483,4.0419,4.0416,4.0357,4.0326,4.0333,4.0301,4.0279,4.0269,4.024,4.0228,4.0194,4.0209,4.0197,4.0172,4.0157,4.0124,4.0161,4.0119,4.0118,4.0127,4.0059,4.0051,3.9998,4.0081,4.0079,4.0078,0,4.0403,4.0378,4.0317,4.0296,4.0283,4.0253,4.0224,4.0196,4.0172,4.0167,4.0145,4.0145,4.0106,4.013,4.0076,4.0102,4.0085,4.0075,4.0073,4.0069,4.0095,4.0054,3.998,3.9973,4.0066,4.0067,4.0068,0,4.0356,4.0307,4.0265,4.0252,4.0225,4.0205,4.0192,4.017,4.0151,4.0124,4.0112,4.008,4.0063,4.0039,4.003,4.0048,3.9978,4.0,3.9972,3.9972,3.9957,3.9958,3.988,3.9945,3.9945,3.9945,3.9945,0,4.0289,4.0252,4.0244,4.0218,4.0177,4.0173,4.0132,4.012,4.0101,4.0073,4.0076,4.0049,4.004,4.0011,4.0004,3.9962,3.9954,3.9948,3.9947,3.9948,3.9949,3.9937,3.994,3.9943,3.9943,3.9944,3.9944,0,4.0229,4.0222,4.0177,4.0157,4.0151,4.0121,4.0103,4.0078,4.007,4.0034,4.0025,4.0011,3.9978,3.9968,3.9926,3.9922,3.9873,3.9875,3.9882,3.9882,3.9855,3.9859,3.9767,3.9756,3.9827,3.9826,3.9826,0,4.0187,4.0159,4.0137,4.0119,4.0107,4.0078,4.006,4.0056,4.0036,4.0009,3.9987,3.9955,3.9929,3.9876,3.9861,3.983,3.9831,3.9802,3.9826,3.983,3.9832,3.9835,3.9832,3.9797,3.9796,3.9796,3.9795,0,4.0113,4.0112,4.0087,4.0061,4.004,4.0018,3.9997,3.9983,3.9975,3.9953,3.9921,3.9901,3.9862,3.983,3.9799,3.9785,3.9789,3.9788,3.978,3.9781,3.9787,3.9785,3.987,3.979,3.979,3.979,3.9791,3.9791,4.0061,4.0038,4.002,3.9992,3.9977,3.9959,3.9935,3.9925,3.9899,3.9868,3.9867,3.9832,3.981,3.977,3.9755,3.9727,3.9736,3.9724,3.9721,3.9718,3.9717,3.9792,3.9721,3.9721,3.9721,3.9722,3.9722,0,3.9989,3.9979,3.9954,3.9927,3.9905,3.9913,3.9891,3.9872,3.9843,3.9823,3.9799,3.9763,3.9733,3.9717,3.9687,3.9668,3.9669,3.966,3.9662,3.9659,3.971,3.9721,3.966,3.966,3.966,3.966,3.966,3.966,3.9949,3.9911,3.9908,3.9863,3.9852,3.982,3.9808,3.9791,3.9776,3.9736,3.9712,3.9703,3.9685,3.9655,3.9628,3.9624,3.9613,3.9603,3.9601,3.9649,3.9655,3.9661,3.9671,3.9601,3.9601,3.9552,3.9551,3.9551]}]]